STARLINK-32851 (62810 NORAD) Tracking and Keplerian Element Data

This shows tracking and keplerian element data for the satellite.

Feedback or suggestion? Click here.




ElementValue
Catalog62810
NameSTARLINK-32851
Epoch Orbit289
Epoch Day34.83335648
Epoch Year2025
RAAN13.6327
Inclination53.1469
Eccentricity0.0001192
Argument of Perigee129.9501
Mean Anonmoly172.4487
Mean Motion15.86559244
Decay Rate-0.00916656
L11 62810U 25018E 25034.83335648 -.00916656 00000+0 -39264-2 0 9997
L22 62810 53.1469 13.6327 0001192 129.9501 172.4487 15.86559244 2890



Live tracking and technical data element details for STARLINK-32851 (NORAD 62810). STARLINK-32851 can be tracked NOW for your location showing map with azimuth and elevation plus other details from your city location.







IsCatalogInMostPopularTable: catalog: 62810, numindb: 4
Update: records affected: 1



GetName: 62810 STARLINK-32851

Hit Count: updated at: Sun, 09 Feb 2025 14:47:02 GMT